<?xml version='1.0' encoding='UTF-8'?>
<gpx xmlns="http://www.topografix.com/GPX/1/1" creator="www.balnam.be" version="1.1" xmlns:xsi="http://www.w3.org/2001/XMLSchema-instance" xsi:schemaLocation="http://www.topografix.com/GPX/1/1 http://www.topografix.com/GPX/1/1/gpx.xsd">
<trk>
<name>lhvbo1</name>
<cmt>r</cmt>
<desc>Bolland Chemin n°1 Sarémont</desc>
<link href="https://chemins.be/bolland/chemin/1"/><trkseg>
<trkpt lat="50.656365" lon="5.768677"><time>2026-05-07T18:31:13Z</time></trkpt>
<trkpt lat="50.656978" lon="5.767879"><time>2026-05-07T18:41:13Z</time></trkpt>
</trkseg></trk>
<trk>
<name>lhvbo1</name>
<cmt>s</cmt>
<desc>Bolland Chemin n°1 Sarémont</desc>
<link href="https://chemins.be/bolland/chemin/1"/><trkseg>
<trkpt lat="50.656978" lon="5.767879"><time>2026-05-07T18:41:13Z</time></trkpt>
<trkpt lat="50.659367" lon="5.763942"><time>2026-05-07T18:51:13Z</time></trkpt>
<trkpt lat="50.660653" lon="5.762543"><time>2026-05-07T19:01:13Z</time></trkpt>
<trkpt lat="50.661147" lon="5.762232"><time>2026-05-07T19:11:13Z</time></trkpt>
</trkseg>
</trk>
<trk>
<name>lhvbo11</name>
<cmt>v</cmt>
<desc>Bolland Chemin n°11 Barbothez</desc>
<link href="https://chemins.be/bolland/chemin/11"/><trkseg>
<trkpt lat="50.666193" lon="5.730346"><time>2026-05-07T18:31:13Z</time></trkpt>
<trkpt lat="50.665214" lon="5.730089"><time>2026-05-07T18:41:13Z</time></trkpt>
<trkpt lat="50.664452" lon="5.730625"><time>2026-05-07T18:51:13Z</time></trkpt>
<trkpt lat="50.664085" lon="5.731162"><time>2026-05-07T19:01:13Z</time></trkpt>
<trkpt lat="50.663650" lon="5.730943"><time>2026-05-07T19:11:13Z</time></trkpt>
<trkpt lat="50.663466" lon="5.730972"><time>2026-05-07T19:21:13Z</time></trkpt>
<trkpt lat="50.663225" lon="5.731099"><time>2026-05-07T19:31:13Z</time></trkpt>
<trkpt lat="50.663129" lon="5.731401"><time>2026-05-07T19:41:13Z</time></trkpt>
<trkpt lat="50.663084" lon="5.732052"><time>2026-05-07T19:51:13Z</time></trkpt>
<trkpt lat="50.662922" lon="5.732473"><time>2026-05-07T20:01:13Z</time></trkpt>
</trkseg>
</trk>
<trk>
<name>lhvbo12</name>
<cmt>v</cmt>
<desc>Bolland Chemin n°12 </desc>
<link href="https://chemins.be/bolland/chemin/12"/><trkseg>
<trkpt lat="50.675867" lon="5.746766"><time>2026-05-07T18:31:13Z</time></trkpt>
<trkpt lat="50.675719" lon="5.747087"><time>2026-05-07T18:41:13Z</time></trkpt>
<trkpt lat="50.675305" lon="5.747938"><time>2026-05-07T18:51:13Z</time></trkpt>
<trkpt lat="50.675059" lon="5.748185"><time>2026-05-07T19:01:13Z</time></trkpt>
<trkpt lat="50.674471" lon="5.748493"><time>2026-05-07T19:11:13Z</time></trkpt>
<trkpt lat="50.674300" lon="5.748517"><time>2026-05-07T19:21:13Z</time></trkpt>
<trkpt lat="50.674005" lon="5.748353"><time>2026-05-07T19:31:13Z</time></trkpt>
<trkpt lat="50.673496" lon="5.748083"><time>2026-05-07T19:41:13Z</time></trkpt>
<trkpt lat="50.672640" lon="5.748171"><time>2026-05-07T19:51:13Z</time></trkpt>
</trkseg>
</trk>
<trk>
<name>lhvbo16</name>
<cmt>q</cmt>
<desc>Bolland Chemin n°16 </desc>
<link href="https://chemins.be/bolland/chemin/16"/><trkseg>
<trkpt lat="50.652900" lon="5.767163"><time>2026-05-07T18:31:13Z</time></trkpt>
<trkpt lat="50.653154" lon="5.767496"><time>2026-05-07T18:41:13Z</time></trkpt>
<trkpt lat="50.653435" lon="5.768411"><time>2026-05-07T18:51:13Z</time></trkpt>
</trkseg>
</trk>
<trk>
<name>lhvbo18</name>
<cmt>s</cmt>
<desc>Bolland Chemin n°18 </desc>
<link href="https://chemins.be/bolland/chemin/18"/><trkseg>
<trkpt lat="50.657909" lon="5.762714"><time>2026-05-07T18:31:13Z</time></trkpt>
<trkpt lat="50.658714" lon="5.761696"><time>2026-05-07T18:41:13Z</time></trkpt>
<trkpt lat="50.659249" lon="5.760609"><time>2026-05-07T18:51:13Z</time></trkpt>
<trkpt lat="50.659576" lon="5.760237"><time>2026-05-07T19:01:13Z</time></trkpt>
</trkseg>
</trk>
<trk>
<name>lhvbo2</name>
<cmt>q</cmt>
<desc>Bolland Chemin n°2 </desc>
<link href="https://chemins.be/bolland/chemin/2"/><trkseg>
<trkpt lat="50.642288" lon="5.774521"><time>2026-05-07T18:31:13Z</time></trkpt>
<trkpt lat="50.640664" lon="5.771102"><time>2026-05-07T18:41:13Z</time></trkpt>
</trkseg>
</trk>
<trk>
<name>lhvbo20</name>
<cmt>q</cmt>
<desc>Bolland Chemin n°20 </desc>
<link href="https://chemins.be/bolland/chemin/20"/><trkseg>
<trkpt lat="50.652852" lon="5.760109"><time>2026-05-07T18:31:13Z</time></trkpt>
<trkpt lat="50.652268" lon="5.760135"><time>2026-05-07T18:41:13Z</time></trkpt>
<trkpt lat="50.651951" lon="5.760309"><time>2026-05-07T18:51:13Z</time></trkpt>
</trkseg>
</trk>
<trk>
<name>lhvbo21</name>
<cmt>v</cmt>
<desc>Bolland Chemin n°21 Noblehaye</desc>
<link href="https://chemins.be/bolland/chemin/21"/><trkseg>
<trkpt lat="50.660997" lon="5.760355"><time>2026-05-07T18:31:13Z</time></trkpt>
<trkpt lat="50.659604" lon="5.760140"><time>2026-05-07T18:41:13Z</time></trkpt>
<trkpt lat="50.658964" lon="5.759003"><time>2026-05-07T18:51:13Z</time></trkpt>
<trkpt lat="50.657286" lon="5.758059"><time>2026-05-07T19:01:13Z</time></trkpt>
<trkpt lat="50.656489" lon="5.757501"><time>2026-05-07T19:11:13Z</time></trkpt>
<trkpt lat="50.655654" lon="5.757512"><time>2026-05-07T19:21:13Z</time></trkpt>
</trkseg></trk>
<trk>
<name>lhvbo21</name>
<cmt>r</cmt>
<desc>Bolland Chemin n°21 Noblehaye</desc>
<link href="https://chemins.be/bolland/chemin/21"/><trkseg>
<trkpt lat="50.655654" lon="5.757512"><time>2026-05-07T19:21:13Z</time></trkpt>
<trkpt lat="50.654781" lon="5.758016"><time>2026-05-07T19:31:13Z</time></trkpt>
<trkpt lat="50.653850" lon="5.758982"><time>2026-05-07T19:41:13Z</time></trkpt>
<trkpt lat="50.652346" lon="5.760870"><time>2026-05-07T19:51:13Z</time></trkpt>
<trkpt lat="50.650918" lon="5.763434"><time>2026-05-07T20:01:13Z</time></trkpt>
</trkseg>
</trk>
<trk>
<name>lhvbo22</name>
<cmt>v</cmt>
<desc>Bolland Chemin n°22 Fosse Moray</desc>
<link href="https://chemins.be/bolland/chemin/22"/><trkseg>
<trkpt lat="50.665140" lon="5.760458"><time>2026-05-07T18:31:13Z</time></trkpt>
<trkpt lat="50.665258" lon="5.761084"><time>2026-05-07T18:41:13Z</time></trkpt>
<trkpt lat="50.665381" lon="5.763563"><time>2026-05-07T18:51:13Z</time></trkpt>
<trkpt lat="50.665501" lon="5.764076"><time>2026-05-07T19:01:13Z</time></trkpt>
</trkseg>
</trk>
<trk>
<name>lhvbo23</name>
<cmt>v</cmt>
<desc>Bolland Chemin n°23 </desc>
<link href="https://chemins.be/bolland/chemin/23"/><trkseg>
<trkpt lat="50.660587" lon="5.755138"><time>2026-05-07T18:31:13Z</time></trkpt>
<trkpt lat="50.660793" lon="5.755410"><time>2026-05-07T18:41:13Z</time></trkpt>
<trkpt lat="50.661390" lon="5.755571"><time>2026-05-07T18:51:13Z</time></trkpt>
<trkpt lat="50.661444" lon="5.755585"><time>2026-05-07T19:01:13Z</time></trkpt>
</trkseg>
</trk>
<trk>
<name>lhvbo24</name>
<cmt>d</cmt>
<desc>Bolland Chemin n°24 </desc>
<link href="https://chemins.be/bolland/chemin/24"/><trkseg>
<trkpt lat="50.658684" lon="5.772312"><time>2026-05-07T18:31:13Z</time></trkpt>
<trkpt lat="50.658453" lon="5.773063"><time>2026-05-07T18:41:13Z</time></trkpt>
<trkpt lat="50.658575" lon="5.773321"><time>2026-05-07T18:51:13Z</time></trkpt>
<trkpt lat="50.658031" lon="5.774673"><time>2026-05-07T19:01:13Z</time></trkpt>
<trkpt lat="50.657752" lon="5.774876"><time>2026-05-07T19:11:13Z</time></trkpt>
<trkpt lat="50.657718" lon="5.775853"><time>2026-05-07T19:21:13Z</time></trkpt>
</trkseg>
</trk>
<trk>
<name>lhvbo25</name>
<cmt>v</cmt>
<desc>Bolland Chemin n°25 Noblehaye</desc>
<link href="https://chemins.be/bolland/chemin/25"/><trkseg>
<trkpt lat="50.650943" lon="5.763377"><time>2026-05-07T18:31:13Z</time></trkpt>
<trkpt lat="50.650075" lon="5.762290"><time>2026-05-07T18:41:13Z</time></trkpt>
<trkpt lat="50.649367" lon="5.761308"><time>2026-05-07T18:51:13Z</time></trkpt>
<trkpt lat="50.649117" lon="5.760452"><time>2026-05-07T19:01:13Z</time></trkpt>
<trkpt lat="50.648992" lon="5.759571"><time>2026-05-07T19:11:13Z</time></trkpt>
<trkpt lat="50.648480" lon="5.759528"><time>2026-05-07T19:21:13Z</time></trkpt>
</trkseg>
</trk>
<trk>
<name>lhvbo26</name>
<cmt>v</cmt>
<desc>Bolland Chemin n°26 </desc>
<link href="https://chemins.be/bolland/chemin/26"/><trkseg>
<trkpt lat="50.652340" lon="5.760858"><time>2026-05-07T18:31:13Z</time></trkpt>
<trkpt lat="50.651896" lon="5.760364"><time>2026-05-07T18:41:13Z</time></trkpt>
<trkpt lat="50.651655" lon="5.760258"><time>2026-05-07T18:51:13Z</time></trkpt>
</trkseg>
</trk>
<trk>
<name>lhvbo27</name>
<cmt>v</cmt>
<desc>Bolland Chemin n°27 </desc>
<link href="https://chemins.be/bolland/chemin/27"/><trkseg>
<trkpt lat="50.654190" lon="5.758627"><time>2026-05-07T18:31:13Z</time></trkpt>
<trkpt lat="50.653695" lon="5.756932"><time>2026-05-07T18:41:13Z</time></trkpt>
</trkseg>
</trk>
<trk>
<name>lhvbo28</name>
<cmt>s</cmt>
<desc>Bolland Chemin n°28 </desc>
<link href="https://chemins.be/bolland/chemin/28"/><trkseg>
<trkpt lat="50.647711" lon="5.769968"><time>2026-05-07T18:31:13Z</time></trkpt>
<trkpt lat="50.645276" lon="5.770376"><time>2026-05-07T18:41:13Z</time></trkpt>
<trkpt lat="50.642840" lon="5.768101"><time>2026-05-07T18:51:13Z</time></trkpt>
<trkpt lat="50.642323" lon="5.768144"><time>2026-05-07T19:01:13Z</time></trkpt>
<trkpt lat="50.642146" lon="5.768230"><time>2026-05-07T19:11:13Z</time></trkpt>
</trkseg>
</trk>
<trk>
<name>lhvbo29</name>
<cmt>q</cmt>
<desc>Bolland Chemin n°29 </desc>
<link href="https://chemins.be/bolland/chemin/29"/><trkseg>
<trkpt lat="50.657273" lon="5.763408"><time>2026-05-07T18:31:13Z</time></trkpt>
<trkpt lat="50.657420" lon="5.763879"><time>2026-05-07T18:41:13Z</time></trkpt>
<trkpt lat="50.657340" lon="5.764598"><time>2026-05-07T18:51:13Z</time></trkpt>
<trkpt lat="50.656381" lon="5.765772"><time>2026-05-07T19:01:13Z</time></trkpt>
<trkpt lat="50.655571" lon="5.767347"><time>2026-05-07T19:11:13Z</time></trkpt>
</trkseg>
</trk>
<trk>
<name>lhvbo3</name>
<cmt>r</cmt>
<desc>Bolland Chemin n°3 Rue Haute-Hez / Chemin de Faschamps</desc>
<link href="https://chemins.be/bolland/chemin/3"/><trkseg>
<trkpt lat="50.663365" lon="5.754293"><time>2026-05-07T18:31:13Z</time></trkpt>
<trkpt lat="50.663705" lon="5.752040"><time>2026-05-07T18:41:13Z</time></trkpt>
<trkpt lat="50.664194" lon="5.750012"><time>2026-05-07T18:51:13Z</time></trkpt>
<trkpt lat="50.664256" lon="5.748167"><time>2026-05-07T19:01:13Z</time></trkpt>
<trkpt lat="50.664344" lon="5.747625"><time>2026-05-07T19:11:13Z</time></trkpt>
<trkpt lat="50.664677" lon="5.747159"><time>2026-05-07T19:21:13Z</time></trkpt>
<trkpt lat="50.665126" lon="5.746214"><time>2026-05-07T19:31:13Z</time></trkpt>
</trkseg></trk>
<trk>
<name>lhvbo3</name>
<cmt>v</cmt>
<desc>Bolland Chemin n°3 Rue Haute-Hez / Chemin de Faschamps</desc>
<link href="https://chemins.be/bolland/chemin/3"/><trkseg>
<trkpt lat="50.665126" lon="5.746214"><time>2026-05-07T19:31:13Z</time></trkpt>
<trkpt lat="50.665842" lon="5.744476"><time>2026-05-07T19:41:13Z</time></trkpt>
<trkpt lat="50.666280" lon="5.742435"><time>2026-05-07T19:51:13Z</time></trkpt>
<trkpt lat="50.666348" lon="5.742336"><time>2026-05-07T20:01:13Z</time></trkpt>
</trkseg></trk>
<trk>
<name>lhvbo3</name>
<cmt>s</cmt>
<desc>Bolland Chemin n°3 Rue Haute-Hez / Chemin de Faschamps</desc>
<link href="https://chemins.be/bolland/chemin/3"/><trkseg>
<trkpt lat="50.666348" lon="5.742336"><time>2026-05-07T20:01:13Z</time></trkpt>
<trkpt lat="50.666500" lon="5.741054"><time>2026-05-07T20:11:13Z</time></trkpt>
</trkseg>
</trk>
<trk>
<name>lhvbo30</name>
<cmt>q</cmt>
<desc>Bolland Chemin n°30 </desc>
<link href="https://chemins.be/bolland/chemin/30"/><trkseg>
<trkpt lat="50.654886" lon="5.771584"><time>2026-05-07T18:31:13Z</time></trkpt>
<trkpt lat="50.654539" lon="5.771033"><time>2026-05-07T18:41:13Z</time></trkpt>
<trkpt lat="50.652424" lon="5.773247"><time>2026-05-07T18:51:13Z</time></trkpt>
<trkpt lat="50.650960" lon="5.774397"><time>2026-05-07T19:01:13Z</time></trkpt>
<trkpt lat="50.648407" lon="5.775749"><time>2026-05-07T19:11:13Z</time></trkpt>
<trkpt lat="50.646611" lon="5.775749"><time>2026-05-07T19:21:13Z</time></trkpt>
</trkseg>
</trk>
<trk>
<name>lhvbo31</name>
<cmt>v</cmt>
<desc>Bolland Chemin n°31 Sarémont / sentier 140</desc>
<link href="https://chemins.be/bolland/chemin/31"/><trkseg>
<trkpt lat="50.654216" lon="5.772403"><time>2026-05-07T18:31:13Z</time></trkpt>
<trkpt lat="50.655563" lon="5.773365"><time>2026-05-07T18:41:13Z</time></trkpt>
<trkpt lat="50.656300" lon="5.773970"><time>2026-05-07T18:51:13Z</time></trkpt>
<trkpt lat="50.657370" lon="5.775389"><time>2026-05-07T19:01:13Z</time></trkpt>
<trkpt lat="50.657733" lon="5.775744"><time>2026-05-07T19:11:13Z</time></trkpt>
</trkseg>
</trk>
<trk>
<name>lhvbo32</name>
<cmt>q</cmt>
<desc>Bolland Chemin n°32 </desc>
<link href="https://chemins.be/bolland/chemin/32"/><trkseg>
<trkpt lat="50.655497" lon="5.757569"><time>2026-05-07T18:31:13Z</time></trkpt>
<trkpt lat="50.657689" lon="5.753157"><time>2026-05-07T18:41:13Z</time></trkpt>
</trkseg>
</trk>
<trk>
<name>lhvbo33</name>
<cmt>v</cmt>
<desc>Bolland Chemin n°33 Bois de Lescours</desc>
<link href="https://chemins.be/bolland/chemin/33"/><trkseg>
<trkpt lat="50.655442" lon="5.768375"><time>2026-05-07T18:31:13Z</time></trkpt>
<trkpt lat="50.655146" lon="5.768338"><time>2026-05-07T18:41:13Z</time></trkpt>
<trkpt lat="50.655085" lon="5.768124"><time>2026-05-07T18:51:13Z</time></trkpt>
<trkpt lat="50.655534" lon="5.767430"><time>2026-05-07T19:01:13Z</time></trkpt>
</trkseg>
</trk>
<trk>
<name>lhvbo33bis</name>
<cmt>q</cmt>
<desc>Bolland Sentier n°33bis </desc>
<link href="https://chemins.be/bolland/sentier/33bis"/><trkseg>
<trkpt lat="50.654319" lon="5.769049"><time>2026-05-07T18:31:13Z</time></trkpt>
<trkpt lat="50.654849" lon="5.768372"><time>2026-05-07T18:41:13Z</time></trkpt>
</trkseg>
</trk>
<trk>
<name>lhvbo34</name>
<cmt>v</cmt>
<desc>Bolland Chemin n°34 </desc>
<link href="https://chemins.be/bolland/chemin/34"/><trkseg>
<trkpt lat="50.665893" lon="5.751724"><time>2026-05-07T18:31:13Z</time></trkpt>
<trkpt lat="50.666240" lon="5.748462"><time>2026-05-07T18:41:13Z</time></trkpt>
</trkseg>
</trk>
<trk>
<name>lhvbo35</name>
<cmt>q</cmt>
<desc>Bolland Sentier n°35 </desc>
<link href="https://chemins.be/bolland/sentier/35"/><trkseg>
<trkpt lat="50.661402" lon="5.758893"><time>2026-05-07T18:31:13Z</time></trkpt>
<trkpt lat="50.661726" lon="5.758722"><time>2026-05-07T18:41:13Z</time></trkpt>
</trkseg>
</trk>
<trk>
<name>lhvbo37</name>
<cmt>q</cmt>
<desc>Bolland Chemin n°37 </desc>
<link href="https://chemins.be/bolland/chemin/37"/><trkseg>
<trkpt lat="50.649186" lon="5.760670"><time>2026-05-07T18:31:13Z</time></trkpt>
<trkpt lat="50.649510" lon="5.759902"><time>2026-05-07T18:41:13Z</time></trkpt>
<trkpt lat="50.649883" lon="5.758237"><time>2026-05-07T18:51:13Z</time></trkpt>
</trkseg>
</trk>
<trk>
<name>lhvbo38</name>
<cmt>q</cmt>
<desc>Bolland Sentier n°38 </desc>
<link href="https://chemins.be/bolland/sentier/38"/><trkseg>
<trkpt lat="50.659099" lon="5.750522"><time>2026-05-07T18:31:13Z</time></trkpt>
<trkpt lat="50.658663" lon="5.751389"><time>2026-05-07T18:41:13Z</time></trkpt>
<trkpt lat="50.658625" lon="5.751852"><time>2026-05-07T18:51:13Z</time></trkpt>
<trkpt lat="50.657831" lon="5.749810"><time>2026-05-07T19:01:13Z</time></trkpt>
<trkpt lat="50.657031" lon="5.750204"><time>2026-05-07T19:11:13Z</time></trkpt>
</trkseg>
</trk>
<trk>
<name>lhvbo39</name>
<cmt>q</cmt>
<desc>Bolland Chemin n°39 </desc>
<link href="https://chemins.be/bolland/chemin/39"/><trkseg>
<trkpt lat="50.654503" lon="5.771051"><time>2026-05-07T18:31:13Z</time></trkpt>
<trkpt lat="50.654287" lon="5.770289"><time>2026-05-07T18:41:13Z</time></trkpt>
<trkpt lat="50.654285" lon="5.769556"><time>2026-05-07T18:51:13Z</time></trkpt>
<trkpt lat="50.654020" lon="5.769595"><time>2026-05-07T19:01:13Z</time></trkpt>
<trkpt lat="50.653911" lon="5.769356"><time>2026-05-07T19:11:13Z</time></trkpt>
</trkseg>
</trk>
<trk>
<name>lhvbo4</name>
<cmt>s</cmt>
<desc>Bolland Chemin n°4 </desc>
<link href="https://chemins.be/bolland/chemin/4"/><trkseg>
<trkpt lat="50.660977" lon="5.750851"><time>2026-05-07T18:31:13Z</time></trkpt>
<trkpt lat="50.661704" lon="5.748250"><time>2026-05-07T18:41:13Z</time></trkpt>
<trkpt lat="50.661783" lon="5.747409"><time>2026-05-07T18:51:13Z</time></trkpt>
<trkpt lat="50.661460" lon="5.746963"><time>2026-05-07T19:01:13Z</time></trkpt>
</trkseg>
</trk>
<trk>
<name>lhvbo41</name>
<cmt>q</cmt>
<desc>Bolland Sentier n°41 </desc>
<link href="https://chemins.be/bolland/sentier/41"/><trkseg>
<trkpt lat="50.673815" lon="5.743952"><time>2026-05-07T18:31:13Z</time></trkpt>
<trkpt lat="50.672877" lon="5.741985"><time>2026-05-07T18:41:13Z</time></trkpt>
<trkpt lat="50.671902" lon="5.740433"><time>2026-05-07T18:51:13Z</time></trkpt>
</trkseg>
</trk>
<trk>
<name>lhvbo42</name>
<cmt>v</cmt>
<desc>Bolland Chemin n°42 </desc>
<link href="https://chemins.be/bolland/chemin/42"/><trkseg>
<trkpt lat="50.673779" lon="5.744087"><time>2026-05-07T18:31:13Z</time></trkpt>
<trkpt lat="50.674081" lon="5.744312"><time>2026-05-07T18:41:13Z</time></trkpt>
<trkpt lat="50.674214" lon="5.744682"><time>2026-05-07T18:51:13Z</time></trkpt>
<trkpt lat="50.674282" lon="5.744945"><time>2026-05-07T19:01:13Z</time></trkpt>
</trkseg>
</trk>
<trk>
<name>lhvbo43</name>
<cmt>q</cmt>
<desc>Bolland Sentier n°43 </desc>
<link href="https://chemins.be/bolland/sentier/43"/><trkseg>
<trkpt lat="50.670029" lon="5.743302"><time>2026-05-07T18:31:13Z</time></trkpt>
<trkpt lat="50.671509" lon="5.741532"><time>2026-05-07T18:41:13Z</time></trkpt>
<trkpt lat="50.672458" lon="5.740198"><time>2026-05-07T18:51:13Z</time></trkpt>
</trkseg>
</trk>
<trk>
<name>lhvbo44</name>
<cmt>q</cmt>
<desc>Bolland Sentier n°44 </desc>
<link href="https://chemins.be/bolland/sentier/44"/><trkseg>
<trkpt lat="50.667911" lon="5.736564"><time>2026-05-07T18:31:13Z</time></trkpt>
<trkpt lat="50.668582" lon="5.735620"><time>2026-05-07T18:41:13Z</time></trkpt>
</trkseg>
</trk>
<trk>
<name>lhvbo45</name>
<cmt>q</cmt>
<desc>Bolland Sentier n°45 </desc>
<link href="https://chemins.be/bolland/sentier/45"/><trkseg>
<trkpt lat="50.668782" lon="5.750635"><time>2026-05-07T18:31:13Z</time></trkpt>
<trkpt lat="50.670482" lon="5.748446"><time>2026-05-07T18:41:13Z</time></trkpt>
<trkpt lat="50.671248" lon="5.748113"><time>2026-05-07T18:51:13Z</time></trkpt>
<trkpt lat="50.672621" lon="5.748167"><time>2026-05-07T19:01:13Z</time></trkpt>
</trkseg></trk>
<trk>
<name>lhvbo45</name>
<cmt>r</cmt>
<desc>Bolland Sentier n°45 </desc>
<link href="https://chemins.be/bolland/sentier/45"/><trkseg>
<trkpt lat="50.672621" lon="5.748167"><time>2026-05-07T19:01:13Z</time></trkpt>
<trkpt lat="50.673311" lon="5.748103"><time>2026-05-07T19:11:13Z</time></trkpt>
</trkseg></trk>
<trk>
<name>lhvbo45</name>
<cmt>q</cmt>
<desc>Bolland Sentier n°45 </desc>
<link href="https://chemins.be/bolland/sentier/45"/><trkseg>
<trkpt lat="50.673311" lon="5.748103"><time>2026-05-07T19:11:13Z</time></trkpt>
<trkpt lat="50.673284" lon="5.747716"><time>2026-05-07T19:21:13Z</time></trkpt>
<trkpt lat="50.674071" lon="5.745645"><time>2026-05-07T19:31:13Z</time></trkpt>
<trkpt lat="50.674121" lon="5.745655"><time>2026-05-07T19:41:13Z</time></trkpt>
<trkpt lat="50.674301" lon="5.744965"><time>2026-05-07T19:51:13Z</time></trkpt>
<trkpt lat="50.674411" lon="5.744585"><time>2026-05-07T20:01:13Z</time></trkpt>
<trkpt lat="50.674751" lon="5.743845"><time>2026-05-07T20:11:13Z</time></trkpt>
<trkpt lat="50.674852" lon="5.743203"><time>2026-05-07T20:21:13Z</time></trkpt>
<trkpt lat="50.675593" lon="5.740483"><time>2026-05-07T20:31:13Z</time></trkpt>
</trkseg>
</trk>
<trk>
<name>lhvbo46</name>
<cmt>v</cmt>
<desc>Bolland Sentier n°46 </desc>
<link href="https://chemins.be/bolland/sentier/46"/><trkseg>
<trkpt lat="50.664717" lon="5.753009"><time>2026-05-07T18:31:13Z</time></trkpt>
<trkpt lat="50.664670" lon="5.752910"><time>2026-05-07T18:41:13Z</time></trkpt>
<trkpt lat="50.664610" lon="5.752759"><time>2026-05-07T18:51:13Z</time></trkpt>
<trkpt lat="50.664483" lon="5.752451"><time>2026-05-07T19:01:13Z</time></trkpt>
<trkpt lat="50.664386" lon="5.752120"><time>2026-05-07T19:11:13Z</time></trkpt>
<trkpt lat="50.664063" lon="5.751270"><time>2026-05-07T19:21:13Z</time></trkpt>
<trkpt lat="50.664024" lon="5.751220"><time>2026-05-07T19:31:13Z</time></trkpt>
<trkpt lat="50.663961" lon="5.751159"><time>2026-05-07T19:41:13Z</time></trkpt>
</trkseg>
</trk>
<trk>
<name>lhvbo47</name>
<cmt>q</cmt>
<desc>Bolland Sentier n°47 </desc>
<link href="https://chemins.be/bolland/sentier/47"/><trkseg>
<trkpt lat="50.664809" lon="5.753017"><time>2026-05-07T18:31:13Z</time></trkpt>
<trkpt lat="50.665529" lon="5.753072"><time>2026-05-07T18:41:13Z</time></trkpt>
<trkpt lat="50.666340" lon="5.753597"><time>2026-05-07T18:51:13Z</time></trkpt>
<trkpt lat="50.666648" lon="5.754177"><time>2026-05-07T19:01:13Z</time></trkpt>
<trkpt lat="50.667947" lon="5.756355"><time>2026-05-07T19:11:13Z</time></trkpt>
</trkseg>
</trk>
<trk>
<name>lhvbo47bis</name>
<cmt>q</cmt>
<desc>Bolland Sentier n°47bis </desc>
<link href="https://chemins.be/bolland/sentier/47bis"/><trkseg>
<trkpt lat="50.666361" lon="5.753621"><time>2026-05-07T18:31:13Z</time></trkpt>
<trkpt lat="50.668139" lon="5.753541"><time>2026-05-07T18:41:13Z</time></trkpt>
</trkseg>
</trk>
<trk>
<name>lhvbo48</name>
<cmt>q</cmt>
<desc>Bolland Sentier n°48 </desc>
<link href="https://chemins.be/bolland/sentier/48"/><trkseg>
<trkpt lat="50.665281" lon="5.761626"><time>2026-05-07T18:31:13Z</time></trkpt>
<trkpt lat="50.666301" lon="5.761530"><time>2026-05-07T18:41:13Z</time></trkpt>
<trkpt lat="50.668062" lon="5.762292"><time>2026-05-07T18:51:13Z</time></trkpt>
</trkseg>
</trk>
<trk>
<name>lhvbo49</name>
<cmt>v</cmt>
<desc>Bolland Sentier n°49 Fosse Moray</desc>
<link href="https://chemins.be/bolland/sentier/49"/><trkseg>
<trkpt lat="50.665510" lon="5.764090"><time>2026-05-07T18:31:13Z</time></trkpt>
<trkpt lat="50.665473" lon="5.764938"><time>2026-05-07T18:41:13Z</time></trkpt>
<trkpt lat="50.665548" lon="5.765379"><time>2026-05-07T18:51:13Z</time></trkpt>
<trkpt lat="50.665483" lon="5.766311"><time>2026-05-07T19:01:13Z</time></trkpt>
<trkpt lat="50.665312" lon="5.767098"><time>2026-05-07T19:11:13Z</time></trkpt>
<trkpt lat="50.665461" lon="5.767442"><time>2026-05-07T19:21:13Z</time></trkpt>
<trkpt lat="50.665733" lon="5.767959"><time>2026-05-07T19:31:13Z</time></trkpt>
</trkseg>
</trk>
<trk>
<name>lhvbo5</name>
<cmt>v</cmt>
<desc>Bolland Chemin n°5 Basse Hez</desc>
<link href="https://chemins.be/bolland/chemin/5"/><trkseg>
<trkpt lat="50.661457" lon="5.755858"><time>2026-05-07T18:31:13Z</time></trkpt>
<trkpt lat="50.661430" lon="5.755747"><time>2026-05-07T18:41:13Z</time></trkpt>
<trkpt lat="50.661444" lon="5.755590"><time>2026-05-07T18:51:13Z</time></trkpt>
<trkpt lat="50.661517" lon="5.755262"><time>2026-05-07T19:01:13Z</time></trkpt>
<trkpt lat="50.661601" lon="5.755095"><time>2026-05-07T19:11:13Z</time></trkpt>
</trkseg></trk>
<trk>
<name>lhvbo5</name>
<cmt>s</cmt>
<desc>Bolland Chemin n°5 Basse Hez</desc>
<link href="https://chemins.be/bolland/chemin/5"/><trkseg>
<trkpt lat="50.661601" lon="5.755095"><time>2026-05-07T19:11:13Z</time></trkpt>
<trkpt lat="50.661571" lon="5.752198"><time>2026-05-07T19:21:13Z</time></trkpt>
<trkpt lat="50.662091" lon="5.749048"><time>2026-05-07T19:31:13Z</time></trkpt>
<trkpt lat="50.661688" lon="5.748409"><time>2026-05-07T19:41:13Z</time></trkpt>
</trkseg>
</trk>
<trk>
<name>lhvbo50</name>
<cmt>q</cmt>
<desc>Bolland Sentier n°50 </desc>
<link href="https://chemins.be/bolland/sentier/50"/><trkseg>
<trkpt lat="50.668289" lon="5.758012"><time>2026-05-07T18:31:13Z</time></trkpt>
<trkpt lat="50.669203" lon="5.758564"><time>2026-05-07T18:41:13Z</time></trkpt>
</trkseg>
</trk>
<trk>
<name>lhvbo51</name>
<cmt>v</cmt>
<desc>Bolland Sentier n°51 </desc>
<link href="https://chemins.be/bolland/sentier/51"/><trkseg>
<trkpt lat="50.664104" lon="5.750831"><time>2026-05-07T18:31:13Z</time></trkpt>
<trkpt lat="50.663549" lon="5.750634"><time>2026-05-07T18:41:13Z</time></trkpt>
<trkpt lat="50.663342" lon="5.750250"><time>2026-05-07T18:51:13Z</time></trkpt>
<trkpt lat="50.662097" lon="5.749097"><time>2026-05-07T19:01:13Z</time></trkpt>
</trkseg>
</trk>
<trk>
<name>lhvbo52</name>
<cmt>v</cmt>
<desc>Bolland Sentier n°52 sentier 52</desc>
<link href="https://chemins.be/bolland/sentier/52"/><trkseg>
<trkpt lat="50.661146" lon="5.762094"><time>2026-05-07T18:31:13Z</time></trkpt>
<trkpt lat="50.661265" lon="5.763399"><time>2026-05-07T18:41:13Z</time></trkpt>
<trkpt lat="50.661272" lon="5.764333"><time>2026-05-07T18:51:13Z</time></trkpt>
<trkpt lat="50.661181" lon="5.767442"><time>2026-05-07T19:01:13Z</time></trkpt>
<trkpt lat="50.660980" lon="5.769968"><time>2026-05-07T19:11:13Z</time></trkpt>
<trkpt lat="50.660875" lon="5.771196"><time>2026-05-07T19:21:13Z</time></trkpt>
<trkpt lat="50.660953" lon="5.771425"><time>2026-05-07T19:31:13Z</time></trkpt>
<trkpt lat="50.660531" lon="5.773392"><time>2026-05-07T19:41:13Z</time></trkpt>
</trkseg></trk>
<trk>
<name>lhvbo52</name>
<cmt>r</cmt>
<desc>Bolland Sentier n°52 sentier 52</desc>
<link href="https://chemins.be/bolland/sentier/52"/><trkseg>
<trkpt lat="50.660531" lon="5.773392"><time>2026-05-07T19:41:13Z</time></trkpt>
<trkpt lat="50.660934" lon="5.773528"><time>2026-05-07T19:51:13Z</time></trkpt>
</trkseg></trk>
<trk>
<name>lhvbo52</name>
<cmt>d</cmt>
<desc>Bolland Sentier n°52 sentier 52</desc>
<link href="https://chemins.be/bolland/sentier/52"/><trkseg>
<trkpt lat="50.660934" lon="5.773528"><time>2026-05-07T19:51:13Z</time></trkpt>
<trkpt lat="50.660649" lon="5.777137"><time>2026-05-07T20:01:13Z</time></trkpt>
</trkseg></trk>
<trk>
<name>lhvbo52</name>
<cmt>v</cmt>
<desc>Bolland Sentier n°52 sentier 52</desc>
<link href="https://chemins.be/bolland/sentier/52"/><trkseg>
<trkpt lat="50.660649" lon="5.777137"><time>2026-05-07T20:01:13Z</time></trkpt>
<trkpt lat="50.659869" lon="5.779372"><time>2026-05-07T20:11:13Z</time></trkpt>
</trkseg>
</trk>
<trk>
<name>lhvbo53</name>
<cmt>v</cmt>
<desc>Bolland Sentier n°53 Sur le Thier / sentier 53</desc>
<link href="https://chemins.be/bolland/sentier/53"/><trkseg>
<trkpt lat="50.661783" lon="5.758311"><time>2026-05-07T18:31:13Z</time></trkpt>
<trkpt lat="50.661815" lon="5.758341"><time>2026-05-07T18:41:13Z</time></trkpt>
<trkpt lat="50.661902" lon="5.758340"><time>2026-05-07T18:51:13Z</time></trkpt>
<trkpt lat="50.662018" lon="5.758496"><time>2026-05-07T19:01:13Z</time></trkpt>
<trkpt lat="50.662266" lon="5.758362"><time>2026-05-07T19:11:13Z</time></trkpt>
<trkpt lat="50.662468" lon="5.758226"><time>2026-05-07T19:21:13Z</time></trkpt>
<trkpt lat="50.662841" lon="5.758083"><time>2026-05-07T19:31:13Z</time></trkpt>
<trkpt lat="50.663038" lon="5.758036"><time>2026-05-07T19:41:13Z</time></trkpt>
<trkpt lat="50.663237" lon="5.758461"><time>2026-05-07T19:51:13Z</time></trkpt>
<trkpt lat="50.663857" lon="5.758675"><time>2026-05-07T20:01:13Z</time></trkpt>
</trkseg></trk>
<trk>
<name>lhvbo53</name>
<cmt>q</cmt>
<desc>Bolland Sentier n°53 Sur le Thier / sentier 53</desc>
<link href="https://chemins.be/bolland/sentier/53"/><trkseg>
<trkpt lat="50.663857" lon="5.758675"><time>2026-05-07T20:01:13Z</time></trkpt>
<trkpt lat="50.665126" lon="5.760440"><time>2026-05-07T20:11:13Z</time></trkpt>
</trkseg>
</trk>
<trk>
<name>lhvbo54</name>
<cmt>v</cmt>
<desc>Bolland Sentier n°54 sentier 53</desc>
<link href="https://chemins.be/bolland/sentier/54"/><trkseg>
<trkpt lat="50.661808" lon="5.759009"><time>2026-05-07T18:31:13Z</time></trkpt>
<trkpt lat="50.663253" lon="5.758500"><time>2026-05-07T18:41:13Z</time></trkpt>
<trkpt lat="50.663892" lon="5.758675"><time>2026-05-07T18:51:13Z</time></trkpt>
<trkpt lat="50.664831" lon="5.758352"><time>2026-05-07T19:01:13Z</time></trkpt>
</trkseg>
</trk>
<trk>
<name>lhvbo55</name>
<cmt>v</cmt>
<desc>Bolland Sentier n°55 Vieux Couvent</desc>
<link href="https://chemins.be/bolland/sentier/55"/><trkseg>
<trkpt lat="50.662828" lon="5.771200"><time>2026-05-07T18:31:13Z</time></trkpt>
<trkpt lat="50.661920" lon="5.774665"><time>2026-05-07T18:41:13Z</time></trkpt>
</trkseg></trk>
<trk>
<name>lhvbo55</name>
<cmt>q</cmt>
<desc>Bolland Sentier n°55 Vieux Couvent</desc>
<link href="https://chemins.be/bolland/sentier/55"/><trkseg>
<trkpt lat="50.661920" lon="5.774665"><time>2026-05-07T18:41:13Z</time></trkpt>
<trkpt lat="50.660659" lon="5.777116"><time>2026-05-07T18:51:13Z</time></trkpt>
</trkseg></trk>
<trk>
<name>lhvbo55</name>
<cmt>v</cmt>
<desc>Bolland Sentier n°55 Vieux Couvent</desc>
<link href="https://chemins.be/bolland/sentier/55"/><trkseg>
<trkpt lat="50.660659" lon="5.777116"><time>2026-05-07T18:51:13Z</time></trkpt>
<trkpt lat="50.659186" lon="5.778168"><time>2026-05-07T19:01:13Z</time></trkpt>
</trkseg>
</trk>
<trk>
<name>lhvbo56</name>
<cmt>v</cmt>
<desc>Bolland Sentier n°56 sentier 140</desc>
<link href="https://chemins.be/bolland/sentier/56"/><trkseg>
<trkpt lat="50.660148" lon="5.779436"><time>2026-05-07T18:31:13Z</time></trkpt>
<trkpt lat="50.660008" lon="5.779169"><time>2026-05-07T18:41:13Z</time></trkpt>
<trkpt lat="50.659616" lon="5.778903"><time>2026-05-07T18:51:13Z</time></trkpt>
<trkpt lat="50.659181" lon="5.778162"><time>2026-05-07T19:01:13Z</time></trkpt>
<trkpt lat="50.659100" lon="5.777848"><time>2026-05-07T19:11:13Z</time></trkpt>
<trkpt lat="50.658167" lon="5.775923"><time>2026-05-07T19:21:13Z</time></trkpt>
<trkpt lat="50.657630" lon="5.775711"><time>2026-05-07T19:31:13Z</time></trkpt>
</trkseg></trk>
<trk>
<name>lhvbo56</name>
<cmt>q</cmt>
<desc>Bolland Sentier n°56 sentier 140</desc>
<link href="https://chemins.be/bolland/sentier/56"/><trkseg>
<trkpt lat="50.657630" lon="5.775711"><time>2026-05-07T19:31:13Z</time></trkpt>
<trkpt lat="50.657307" lon="5.773790"><time>2026-05-07T19:41:13Z</time></trkpt>
<trkpt lat="50.657521" lon="5.771424"><time>2026-05-07T19:51:13Z</time></trkpt>
</trkseg>
</trk>
<trk>
<name>lhvbo57</name>
<cmt>d</cmt>
<desc>Bolland Sentier n°57 </desc>
<link href="https://chemins.be/bolland/sentier/57"/><trkseg>
<trkpt lat="50.659712" lon="5.773011"><time>2026-05-07T18:31:13Z</time></trkpt>
<trkpt lat="50.658587" lon="5.773441"><time>2026-05-07T18:41:13Z</time></trkpt>
<trkpt lat="50.658052" lon="5.774614"><time>2026-05-07T18:51:13Z</time></trkpt>
<trkpt lat="50.657771" lon="5.774900"><time>2026-05-07T19:01:13Z</time></trkpt>
<trkpt lat="50.657735" lon="5.775701"><time>2026-05-07T19:11:13Z</time></trkpt>
<trkpt lat="50.654896" lon="5.776969"><time>2026-05-07T19:21:13Z</time></trkpt>
</trkseg>
</trk>
<trk>
<name>lhvbo58</name>
<cmt>q</cmt>
<desc>Bolland Sentier n°58 </desc>
<link href="https://chemins.be/bolland/sentier/58"/><trkseg>
<trkpt lat="50.662596" lon="5.778597"><time>2026-05-07T18:31:13Z</time></trkpt>
<trkpt lat="50.661429" lon="5.777746"><time>2026-05-07T18:41:13Z</time></trkpt>
<trkpt lat="50.661316" lon="5.775703"><time>2026-05-07T18:51:13Z</time></trkpt>
</trkseg>
</trk>
<trk>
<name>lhvbo59</name>
<cmt>v</cmt>
<desc>Bolland Sentier n°59 Rue Lescours / Bois de Lescours</desc>
<link href="https://chemins.be/bolland/sentier/59"/><trkseg>
<trkpt lat="50.651729" lon="5.762339"><time>2026-05-07T18:31:13Z</time></trkpt>
<trkpt lat="50.654577" lon="5.764036"><time>2026-05-07T18:41:13Z</time></trkpt>
<trkpt lat="50.655663" lon="5.764917"><time>2026-05-07T18:51:13Z</time></trkpt>
<trkpt lat="50.655400" lon="5.765163"><time>2026-05-07T19:01:13Z</time></trkpt>
<trkpt lat="50.655468" lon="5.765462"><time>2026-05-07T19:11:13Z</time></trkpt>
<trkpt lat="50.655376" lon="5.766407"><time>2026-05-07T19:21:13Z</time></trkpt>
<trkpt lat="50.655474" lon="5.767188"><time>2026-05-07T19:31:13Z</time></trkpt>
</trkseg></trk>
<trk>
<name>lhvbo59</name>
<cmt>d</cmt>
<desc>Bolland Sentier n°59 Rue Lescours / Bois de Lescours</desc>
<link href="https://chemins.be/bolland/sentier/59"/><trkseg>
<trkpt lat="50.655474" lon="5.767188"><time>2026-05-07T19:31:13Z</time></trkpt>
<trkpt lat="50.655894" lon="5.767720"><time>2026-05-07T19:41:13Z</time></trkpt>
<trkpt lat="50.655948" lon="5.768049"><time>2026-05-07T19:51:13Z</time></trkpt>
</trkseg>
</trk>
<trk>
<name>lhvbo6</name>
<cmt>v</cmt>
<desc>Bolland Chemin n°6 </desc>
<link href="https://chemins.be/bolland/chemin/6"/><trkseg>
<trkpt lat="50.676207" lon="5.744858"><time>2026-05-07T18:31:13Z</time></trkpt>
<trkpt lat="50.676321" lon="5.745373"><time>2026-05-07T18:41:13Z</time></trkpt>
<trkpt lat="50.676271" lon="5.745510"><time>2026-05-07T18:51:13Z</time></trkpt>
<trkpt lat="50.676220" lon="5.745617"><time>2026-05-07T19:01:13Z</time></trkpt>
<trkpt lat="50.675867" lon="5.746174"><time>2026-05-07T19:11:13Z</time></trkpt>
<trkpt lat="50.675761" lon="5.746610"><time>2026-05-07T19:21:13Z</time></trkpt>
</trkseg>
</trk>
<trk>
<name>lhvbo60</name>
<cmt>q</cmt>
<desc>Bolland Sentier n°60 </desc>
<link href="https://chemins.be/bolland/sentier/60"/><trkseg>
<trkpt lat="50.654275" lon="5.772366"><time>2026-05-07T18:31:13Z</time></trkpt>
<trkpt lat="50.652081" lon="5.770592"><time>2026-05-07T18:41:13Z</time></trkpt>
</trkseg>
</trk>
<trk>
<name>lhvbo61</name>
<cmt>q</cmt>
<desc>Bolland Sentier n°61 </desc>
<link href="https://chemins.be/bolland/sentier/61"/><trkseg>
<trkpt lat="50.655781" lon="5.770175"><time>2026-05-07T18:31:13Z</time></trkpt>
<trkpt lat="50.655049" lon="5.769803"><time>2026-05-07T18:41:13Z</time></trkpt>
<trkpt lat="50.654339" lon="5.770496"><time>2026-05-07T18:51:13Z</time></trkpt>
<trkpt lat="50.654292" lon="5.770302"><time>2026-05-07T19:01:13Z</time></trkpt>
<trkpt lat="50.654294" lon="5.769563"><time>2026-05-07T19:11:13Z</time></trkpt>
<trkpt lat="50.654002" lon="5.769572"><time>2026-05-07T19:21:13Z</time></trkpt>
<trkpt lat="50.653890" lon="5.769335"><time>2026-05-07T19:31:13Z</time></trkpt>
<trkpt lat="50.653409" lon="5.768478"><time>2026-05-07T19:41:13Z</time></trkpt>
</trkseg>
</trk>
<trk>
<name>lhvbo62</name>
<cmt>q</cmt>
<desc>Bolland Sentier n°62 Rue Lescours</desc>
<link href="https://chemins.be/bolland/sentier/62"/><trkseg>
<trkpt lat="50.660947" lon="5.761709"><time>2026-05-07T18:31:13Z</time></trkpt>
<trkpt lat="50.660009" lon="5.762027"><time>2026-05-07T18:41:13Z</time></trkpt>
<trkpt lat="50.658223" lon="5.763057"><time>2026-05-07T18:51:13Z</time></trkpt>
<trkpt lat="50.657884" lon="5.762783"><time>2026-05-07T19:01:13Z</time></trkpt>
<trkpt lat="50.656741" lon="5.763971"><time>2026-05-07T19:11:13Z</time></trkpt>
<trkpt lat="50.654501" lon="5.765043"><time>2026-05-07T19:21:13Z</time></trkpt>
<trkpt lat="50.653168" lon="5.766646"><time>2026-05-07T19:31:13Z</time></trkpt>
</trkseg>
</trk>
<trk>
<name>lhvbo63</name>
<cmt>q</cmt>
<desc>Bolland Sentier n°63 </desc>
<link href="https://chemins.be/bolland/sentier/63"/><trkseg>
<trkpt lat="50.650330" lon="5.764977"><time>2026-05-07T18:31:13Z</time></trkpt>
<trkpt lat="50.651015" lon="5.765836"><time>2026-05-07T18:41:13Z</time></trkpt>
<trkpt lat="50.651151" lon="5.768117"><time>2026-05-07T18:51:13Z</time></trkpt>
</trkseg></trk>
<trk>
<name>lhvbo63</name>
<cmt>r</cmt>
<desc>Bolland Sentier n°63 </desc>
<link href="https://chemins.be/bolland/sentier/63"/><trkseg>
<trkpt lat="50.651151" lon="5.768117"><time>2026-05-07T18:51:13Z</time></trkpt>
<trkpt lat="50.651645" lon="5.767953"><time>2026-05-07T19:01:13Z</time></trkpt>
</trkseg></trk>
<trk>
<name>lhvbo63</name>
<cmt>q</cmt>
<desc>Bolland Sentier n°63 </desc>
<link href="https://chemins.be/bolland/sentier/63"/><trkseg>
<trkpt lat="50.651645" lon="5.767953"><time>2026-05-07T19:01:13Z</time></trkpt>
<trkpt lat="50.652004" lon="5.769762"><time>2026-05-07T19:11:13Z</time></trkpt>
<trkpt lat="50.652094" lon="5.770685"><time>2026-05-07T19:21:13Z</time></trkpt>
<trkpt lat="50.650974" lon="5.774412"><time>2026-05-07T19:31:13Z</time></trkpt>
</trkseg>
</trk>
<trk>
<name>lhvbo64</name>
<cmt>v</cmt>
<desc>Bolland Sentier n°64 </desc>
<link href="https://chemins.be/bolland/sentier/64"/><trkseg>
<trkpt lat="50.647950" lon="5.756486"><time>2026-05-07T18:31:13Z</time></trkpt>
<trkpt lat="50.648108" lon="5.758357"><time>2026-05-07T18:41:13Z</time></trkpt>
<trkpt lat="50.648428" lon="5.759442"><time>2026-05-07T18:51:13Z</time></trkpt>
<trkpt lat="50.648993" lon="5.759529"><time>2026-05-07T19:01:13Z</time></trkpt>
</trkseg></trk>
<trk>
<name>lhvbo64</name>
<cmt>d</cmt>
<desc>Bolland Sentier n°64 </desc>
<link href="https://chemins.be/bolland/sentier/64"/><trkseg>
<trkpt lat="50.648993" lon="5.759529"><time>2026-05-07T19:01:13Z</time></trkpt>
<trkpt lat="50.649501" lon="5.759898"><time>2026-05-07T19:11:13Z</time></trkpt>
<trkpt lat="50.650250" lon="5.760457"><time>2026-05-07T19:21:13Z</time></trkpt>
</trkseg></trk>
<trk>
<name>lhvbo64</name>
<cmt>q</cmt>
<desc>Bolland Sentier n°64 </desc>
<link href="https://chemins.be/bolland/sentier/64"/><trkseg>
<trkpt lat="50.650250" lon="5.760457"><time>2026-05-07T19:21:13Z</time></trkpt>
<trkpt lat="50.651057" lon="5.760580"><time>2026-05-07T19:31:13Z</time></trkpt>
<trkpt lat="50.651360" lon="5.760108"><time>2026-05-07T19:41:13Z</time></trkpt>
<trkpt lat="50.651619" lon="5.760229"><time>2026-05-07T19:51:13Z</time></trkpt>
</trkseg>
</trk>
<trk>
<name>lhvbo64bis</name>
<cmt>v</cmt>
<desc>Bolland Sentier n°64bis </desc>
<link href="https://chemins.be/bolland/sentier/64bis"/><trkseg>
<trkpt lat="50.648445" lon="5.759513"><time>2026-05-07T18:31:13Z</time></trkpt>
<trkpt lat="50.646524" lon="5.759994"><time>2026-05-07T18:41:13Z</time></trkpt>
</trkseg>
</trk>
<trk>
<name>lhvbo64ter</name>
<cmt>d</cmt>
<desc>Bolland Sentier n°64ter </desc>
<link href="https://chemins.be/bolland/sentier/64ter"/><trkseg>
<trkpt lat="50.649462" lon="5.761431"><time>2026-05-07T18:31:13Z</time></trkpt>
<trkpt lat="50.649962" lon="5.760272"><time>2026-05-07T18:41:13Z</time></trkpt>
</trkseg>
</trk>
<trk>
<name>lhvbo65</name>
<cmt>q</cmt>
<desc>Bolland Sentier n°65 </desc>
<link href="https://chemins.be/bolland/sentier/65"/><trkseg>
<trkpt lat="50.651633" lon="5.760187"><time>2026-05-07T18:31:13Z</time></trkpt>
<trkpt lat="50.651519" lon="5.759320"><time>2026-05-07T18:41:13Z</time></trkpt>
<trkpt lat="50.651785" lon="5.754513"><time>2026-05-07T18:51:13Z</time></trkpt>
</trkseg>
</trk>
<trk>
<name>lhvbo66</name>
<cmt>q</cmt>
<desc>Bolland Sentier n°66 </desc>
<link href="https://chemins.be/bolland/sentier/66"/><trkseg>
<trkpt lat="50.658863" lon="5.759059"><time>2026-05-07T18:31:13Z</time></trkpt>
<trkpt lat="50.659951" lon="5.759123"><time>2026-05-07T18:41:13Z</time></trkpt>
<trkpt lat="50.660736" lon="5.758651"><time>2026-05-07T18:51:13Z</time></trkpt>
</trkseg>
</trk>
<trk>
<name>lhvbo67</name>
<cmt>q</cmt>
<desc>Bolland Sentier n°67 </desc>
<link href="https://chemins.be/bolland/sentier/67"/><trkseg>
<trkpt lat="50.661188" lon="5.759740"><time>2026-05-07T18:31:13Z</time></trkpt>
<trkpt lat="50.660050" lon="5.756768"><time>2026-05-07T18:41:13Z</time></trkpt>
<trkpt lat="50.659115" lon="5.754324"><time>2026-05-07T18:51:13Z</time></trkpt>
<trkpt lat="50.658638" lon="5.751791"><time>2026-05-07T19:01:13Z</time></trkpt>
</trkseg>
</trk>
<trk>
<name>lhvbo68</name>
<cmt>q</cmt>
<desc>Bolland Sentier n°68 </desc>
<link href="https://chemins.be/bolland/sentier/68"/><trkseg>
<trkpt lat="50.660437" lon="5.754932"><time>2026-05-07T18:31:13Z</time></trkpt>
<trkpt lat="50.659924" lon="5.757385"><time>2026-05-07T18:41:13Z</time></trkpt>
<trkpt lat="50.659348" lon="5.759016"><time>2026-05-07T18:51:13Z</time></trkpt>
</trkseg>
</trk>
<trk>
<name>lhvbo9</name>
<cmt>v</cmt>
<desc>Bolland Chemin n°9 </desc>
<link href="https://chemins.be/bolland/chemin/9"/><trkseg>
<trkpt lat="50.668328" lon="5.732192"><time>2026-05-07T18:31:13Z</time></trkpt>
<trkpt lat="50.668550" lon="5.735374"><time>2026-05-07T18:41:13Z</time></trkpt>
<trkpt lat="50.668763" lon="5.736784"><time>2026-05-07T18:51:13Z</time></trkpt>
<trkpt lat="50.669742" lon="5.738608"><time>2026-05-07T19:01:13Z</time></trkpt>
<trkpt lat="50.670081" lon="5.739832"><time>2026-05-07T19:11:13Z</time></trkpt>
<trkpt lat="50.670245" lon="5.741633"><time>2026-05-07T19:21:13Z</time></trkpt>
</trkseg>
</trk>
<trk>
<name>lhvboi1</name>
<cmt>v</cmt>
<desc>Bolland Chemin n°i1 </desc>
<link href="https://chemins.be/bolland/chemin/i1"/><trkseg>
<trkpt lat="50.661186" lon="5.776992"><time>2026-05-07T18:31:13Z</time></trkpt>
<trkpt lat="50.660806" lon="5.777085"><time>2026-05-07T18:41:13Z</time></trkpt>
<trkpt lat="50.660629" lon="5.777153"><time>2026-05-07T18:51:13Z</time></trkpt>
</trkseg>
</trk>
<trk>
<name>lhvboi2</name>
<cmt>q</cmt>
<desc>Bolland Sentier n°i2 </desc>
<link href="https://chemins.be/bolland/sentier/i2"/><trkseg>
<trkpt lat="50.662925" lon="5.770899"><time>2026-05-07T18:31:13Z</time></trkpt>
<trkpt lat="50.663238" lon="5.770026"><time>2026-05-07T18:41:13Z</time></trkpt>
<trkpt lat="50.663614" lon="5.768689"><time>2026-05-07T18:51:13Z</time></trkpt>
<trkpt lat="50.663649" lon="5.768414"><time>2026-05-07T19:01:13Z</time></trkpt>
<trkpt lat="50.663532" lon="5.767853"><time>2026-05-07T19:11:13Z</time></trkpt>
<trkpt lat="50.663173" lon="5.766811"><time>2026-05-07T19:21:13Z</time></trkpt>
<trkpt lat="50.662817" lon="5.765614"><time>2026-05-07T19:31:13Z</time></trkpt>
<trkpt lat="50.662587" lon="5.764574"><time>2026-05-07T19:41:13Z</time></trkpt>
<trkpt lat="50.662642" lon="5.763271"><time>2026-05-07T19:51:13Z</time></trkpt>
</trkseg>
</trk>
<trk>
<name>lhvboi3</name>
<cmt>v</cmt>
<desc>Bolland Sentier n°i3 </desc>
<link href="https://chemins.be/bolland/sentier/i3"/><trkseg>
<trkpt lat="50.663084" lon="5.753222"><time>2026-05-07T18:31:13Z</time></trkpt>
<trkpt lat="50.663216" lon="5.753565"><time>2026-05-07T18:41:13Z</time></trkpt>
<trkpt lat="50.663420" lon="5.753751"><time>2026-05-07T18:51:13Z</time></trkpt>
</trkseg>
</trk>
<trk>
<name>lhvboi4</name>
<cmt>v</cmt>
<desc>Bolland Chemin n°i4 Vieux Couvent / sentier 140</desc>
<link href="https://chemins.be/bolland/chemin/i4"/><trkseg>
<trkpt lat="50.661884" lon="5.774673"><time>2026-05-07T18:31:13Z</time></trkpt>
<trkpt lat="50.661184" lon="5.776994"><time>2026-05-07T18:41:13Z</time></trkpt>
<trkpt lat="50.661079" lon="5.777407"><time>2026-05-07T18:51:13Z</time></trkpt>
</trkseg></trk>
<trk>
<name>lhvboi4</name>
<cmt>q</cmt>
<desc>Bolland Chemin n°i4 Vieux Couvent / sentier 140</desc>
<link href="https://chemins.be/bolland/chemin/i4"/><trkseg>
<trkpt lat="50.661079" lon="5.777407"><time>2026-05-07T18:51:13Z</time></trkpt>
<trkpt lat="50.660878" lon="5.778032"><time>2026-05-07T19:01:13Z</time></trkpt>
</trkseg></trk>
<trk>
<name>lhvboi4</name>
<cmt>v</cmt>
<desc>Bolland Chemin n°i4 Vieux Couvent / sentier 140</desc>
<link href="https://chemins.be/bolland/chemin/i4"/><trkseg>
<trkpt lat="50.660878" lon="5.778032"><time>2026-05-07T19:01:13Z</time></trkpt>
<trkpt lat="50.660577" lon="5.779087"><time>2026-05-07T19:11:13Z</time></trkpt>
<trkpt lat="50.660214" lon="5.779519"><time>2026-05-07T19:21:13Z</time></trkpt>
</trkseg>
</trk>
<trk>
<name>lhvboi5</name>
<cmt>v</cmt>
<desc>Bolland Chemin n°i5 </desc>
<link href="https://chemins.be/bolland/chemin/i5"/><trkseg>
<trkpt lat="50.661122" lon="5.748899"><time>2026-05-07T18:31:13Z</time></trkpt>
<trkpt lat="50.662060" lon="5.749071"><time>2026-05-07T18:41:13Z</time></trkpt>
</trkseg>
</trk>
</gpx>